Batman, Turkey

8:37 PM +03 on April 19, 2018 (GMT +0300)
Batman Air Base

Weather History for LTCJ - September, 2013

Change the Weather History Date:

Friday, September 27, 2013

  Actual Average (LTCC) Record (LTCC)
Temperature  
Mean Temperature 66 °F -  
Max Temperature 87 °F 86 °F 96 °F (2004)
Min Temperature 46 °F 56 °F 50 °F (2014)
Cooling Degree Days 2    
Growing Degree Days 16 (Base 50)    
Moisture  
Dew Point 31 °F    
Average Humidity 32    
Maximum Humidity 66    
Minimum Humidity 9    
Precipitation  
Precipitation 0.00 in - - ()
Sea Level Pressure  
Sea Level Pressure 29.88 in    
Wind  
Wind Speed 5 mph ()    
Max Wind Speed 8 mph    
Max Gust Speed -    
Visibility 4.2 miles    
Events      
Averages and records for this station are not official NWS values.
T = Trace of Precipitation, MM = Missing Value Source: Averaged Metar Reports

Daily Weather History Graph

Daily Weather History Graph

Search for Another Location

Airport or City:

Astronomy

Sep. 27, 2013 Rise Set
Actual Time 6:07 AM EEST 6:04 PM EEST
Civil Twilight 5:41 AM EEST 6:31 PM EEST
Nautical Twilight 5:10 AM EEST 7:01 PM EEST
Astronomical Twilight 4:39 AM EEST 7:32 PM EEST
Moon 11:42 PM EEST (9/27) 1:22 PM EEST (9/27)
Length of Visible Light 12h 49m
Length of Day
11h 57m
Waning Gibbous, 48% of the Moon is Illuminated
Sep 27
Waning Gibbous
Oct 5
New
Oct 12
First Quarter
Oct 19
Full
Oct 27
Last Quarter

Hourly Weather History & Observations

Time (EEST) Temp. Windchill Dew Point Humidity Pressure Visibility Wind Dir Wind Speed Gust Speed Precip Events Conditions
12:20 AM 59.0 °F - 30.2 °F 34% 29.95 in - South 5.8 mph - N/A   Clear
12:50 AM 55.4 °F - 33.8 °F 44% 29.95 in - Variable 1.2 mph - N/A   Clear
1:20 AM 50.0 °F - 35.6 °F 58% 29.95 in - North 6.9 mph - N/A   Clear
1:50 AM 50.0 °F - 35.6 °F 58% 29.95 in - NNE 8.1 mph - N/A   Clear
2:20 AM 50.0 °F - 35.6 °F 58% 29.95 in - NE 8.1 mph - N/A   Clear
2:50 AM 50.0 °F - 35.6 °F 58% 29.95 in - NNE 6.9 mph - N/A   Clear
3:20 AM 50.0 °F - 35.6 °F 58% 29.95 in - NE 6.9 mph - N/A   Clear
3:50 AM 50.0 °F - 33.8 °F 54% 29.95 in - NE 6.9 mph - N/A   Clear
4:20 AM 48.2 °F - 32.0 °F 54% 29.95 in - NNE 5.8 mph - N/A   Clear
4:50 AM 46.4 °F 43.5 °F 32.0 °F 57% 29.95 in - NNE 5.8 mph - N/A   Clear
5:20 AM 46.4 °F 43.5 °F 33.8 °F 62% 29.95 in - NNE 5.8 mph - N/A   Clear
5:50 AM 46.4 °F 45.2 °F 35.6 °F 66% 29.95 in - NNE 3.5 mph - N/A   Clear
6:20 AM 46.4 °F 44.3 °F 35.6 °F 66% 29.95 in 5.0 mi North 4.6 mph - N/A   Unknown
6:50 AM 48.2 °F - 35.6 °F 62% 29.95 in 5.0 mi NNE 4.6 mph - N/A   Unknown
7:20 AM 53.6 °F - 33.8 °F 47% 29.95 in 4.3 mi Variable 1.2 mph - N/A   Unknown
7:50 AM 55.4 °F - 33.8 °F 44% 29.95 in 2.5 mi WSW 2.3 mph - N/A   Smoke
8:20 AM 59.0 °F - 32.0 °F 36% 29.95 in 2.2 mi West 3.5 mph - N/A   Smoke
8:50 AM 62.6 °F - 32.0 °F 32% 29.95 in 2.5 mi Variable 2.3 mph - N/A   Smoke
9:20 AM 68.0 °F - 30.2 °F 24% 29.95 in 3.1 mi Variable 2.3 mph - N/A   Smoke
9:50 AM 69.8 °F - 30.2 °F 23% 29.95 in - WSW 4.6 mph - N/A   Clear
10:20 AM 73.4 °F - 32.0 °F 22% 29.95 in - WSW 6.9 mph - N/A   Clear
10:50 AM 75.2 °F - 32.0 °F 21% 29.92 in - West 5.8 mph - N/A   Clear
11:20 AM 78.8 °F - 30.2 °F 17% 29.92 in - Variable 4.6 mph - N/A   Clear
11:50 AM 80.6 °F - 30.2 °F 16% 29.89 in - Variable 3.5 mph - N/A   Clear
12:20 PM 82.4 °F - 30.2 °F 15% 29.89 in - SSW 3.5 mph - N/A   Clear
12:50 PM 84.2 °F - 30.2 °F 14% 29.89 in - Variable 4.6 mph - N/A   Clear
1:20 PM 86.0 °F - 30.2 °F 13% 29.86 in - Variable 4.6 mph - N/A   Clear
1:50 PM 86.0 °F - 28.4 °F 12% 29.86 in - West 4.6 mph - N/A   Clear
2:20 PM 86.0 °F - 26.6 °F 12% 29.83 in - Variable 4.6 mph - N/A   Clear
2:50 PM 87.8 °F - 23.0 °F 9% 29.83 in - Variable 4.6 mph - N/A   Clear
3:20 PM 87.8 °F - 24.8 °F 10% 29.83 in - South 6.9 mph - N/A   Clear
3:50 PM 87.8 °F - 24.8 °F 10% 29.83 in - WSW 6.9 mph - N/A   Clear
4:20 PM 87.8 °F - 24.8 °F 10% 29.83 in - SW 6.9 mph - N/A   Clear
4:50 PM 86.0 °F - 26.6 °F 12% 29.83 in - SW 5.8 mph - N/A   Clear
5:20 PM 82.4 °F - 26.6 °F 13% 29.80 in - SSW 5.8 mph - N/A   Clear
5:50 PM 78.8 °F - 26.6 °F 15% 29.80 in - SSW 5.8 mph - N/A   Clear
6:20 PM 77.0 °F - 26.6 °F 16% 29.80 in - SW 3.5 mph - N/A   Clear
6:50 PM 75.2 °F - 26.6 °F 17% 29.80 in - Calm Calm - N/A   Clear
7:20 PM 69.8 °F - 26.6 °F 20% 29.80 in - NNE 1.2 mph - N/A   Clear
7:50 PM 68.0 °F - 26.6 °F 21% 29.80 in - NNE 3.5 mph - N/A   Clear
8:20 PM 64.4 °F - 26.6 °F 24% 29.80 in - NE 6.9 mph - N/A   Clear
8:50 PM 64.4 °F - 30.2 °F 28% 29.80 in 5.0 mi NNE 6.9 mph - N/A   Unknown
9:20 PM 64.4 °F - 28.4 °F 26% 29.80 in 5.0 mi NNE 5.8 mph - N/A   Unknown
9:50 PM 59.0 °F - 30.2 °F 34% 29.83 in 5.0 mi NNE 8.1 mph - N/A   Unknown
10:20 PM 59.0 °F - 28.4 °F 31% 29.80 in 5.0 mi NNE 5.8 mph - N/A   Unknown
10:50 PM 59.0 °F - 30.2 °F 34% 29.80 in 5.0 mi NNE 5.8 mph - N/A   Unknown
11:20 PM 57.2 °F - 35.6 °F 44% 29.80 in 5.0 mi North 3.5 mph - N/A   Unknown
11:50 PM 59.0 °F - 30.2 °F 34% 29.80 in 4.3 mi North 3.5 mph - N/A   Unknown